Hourly Data Report for October 12, 2015

All times are specified in Local Standard Time (LST). Add 1 hour to adjust for Daylight Saving Time where and when it is observed.

KUGAARUK CLIMATE
NUNAVUT

68°32'15.060" N
89°47'47.020" W
15.80 m
2303094
71407
NBB

Download Data

Hourly Data (October 2015)
Hourly Data Report for October 12, 2015
Temp Definition
°C
Dew Point Temp Definition
°C
Rel Hum Definition
%
Wind Dir Definition
10's deg

Wind Spd Definition
km/h
Visibility Definition
km
Stn Press Definition
kPa
Hmdx Definition


Wind Chill Definition


Weather Definition


TIME
00:00 -11.6 -12.9 90 25 5   100.42   -15 LegendNANA
01:00 -10.9 -12.2 91 26 4   100.39   -13 LegendNANA
02:00 -11.0 -12.3 90 24 8   100.34   -16 LegendNANA
03:00 -11.0 -12.3 91 26 6   100.30   -15 LegendNANA
04:00 -10.6 -11.9 91 26 11   100.29   -16 LegendNANA
05:00 -10.9 -12.1 90 24 11   100.27   -17 LegendNANA
06:00 -12.6 -14.0 89 23 4   100.24   -15 LegendNANA
07:00 -12.1 -13.4 90 20 3   100.20   -14 LegendNANA
08:00 -12.4 -13.7 90   0   100.17     LegendNANA
09:00 -11.3 -12.6 91   0   100.14     LegendNANA
10:00 -10.9 -12.3 89   0   100.11     LegendNANA
11:00 -10.4 -12.2 86   0   100.06     LegendNANA
12:00 -9.2 -13.0 74   0   100.02     LegendNANA
13:00 -9.7 -12.0 83 7 4   99.99   -12 LegendNANA
14:00 -9.6 -11.5 86 6 4   99.95   -12 LegendNANA
15:00 -10.6 -12.1 88 6 2   99.94   -12 LegendNANA
16:00 -11.3 -12.6 90 7 2   99.93   -13 LegendNANA
17:00 -11.3 -12.5 90   0   99.91     LegendNANA
18:00 -11.0 -12.2 90   0   99.88     LegendNANA
19:00 -10.6 -11.8 91 10 3   99.85   -12 LegendNANA
20:00 -12.0 -13.3 90   0   99.83     LegendNANA
21:00 -11.0 -12.1 92 0 1   99.81   -12 LegendNANA
22:00 -8.9 -10.2 91 30 12   99.77   -15 LegendNANA
23:00 -10.0 -11.2 91 29 7   99.78   -14 LegendNANA

Notes on Data Quality.

Legend

  • E = Estimated
  • M = Missing
  • NA = Not Available
  • ‡ = Partner data that is not subject to review by the National Climate Archives
Date modified: